Powrót do katalogu

CZ-6A DEB

AktywnyPO
NORAD 60664·DEBRIS·🇨🇳 China

Wystrzelony Aug 6, 2024 z Taiyuan Satellite Launch Center

Loading…

Następne Przeloty (najbliższe 24 godziny)

TLE

ŚwieżeSource: Space-Track

Epoka: Sep 14, 2026, 00:44 UTC

1 60664U 24140BR  26257.03116482  .00000652  00000-0  14078-3 0  9996
2 60664  89.0329 263.3767 0111003 326.5487  32.8741 14.53418687111184

Śledź CZ-6A DEB w czasie rzeczywistym z AllMySat

Download on the App Store